Location: Noverd
(38.0910°N, 121.6877°W)
Time: 06:40:49
(UTC+00:00)

COSMOS 2455 - Pass Details

Date: 13 February 2026
Orbit: 899 x 909 km, 67.1° (Epoch: 9 March)

Event Time Altitude Azimuth Distance (km) Brightness Sun altitude
Exits shadow 14:06:13 14° 269° (W) 2,334 4.3 -11.0°
Maximum altitude 14:09:47 22° 312° (NW) 1,868 4.0 -10.3°
Drops below altitude 10° 14:14:24 10° 2° (N) 2,599 5.2 -9.4°
Sets 14:17:32 0° 17° (NNE) 3,544 6.0 -8.8°
